FREGAT DEB, 45971

Orbit data source: Space-Track

FREGAT DEB, 45971 is space debris in LEO originally from a launch on Mon, 18 Jul 2011 UTC launched from the Tyuratam Missile And Space Complex (TTMTR). Debris objects in space refer to the collection of defunct objects orbiting the Earth. Examples of debris include non-operational satellites, rocket bodies, and fragments generated from explosions, collisions, or faulty payload assembly.

Loading next visibility...
Identifier
45971, 2011-037GC
Orbit
LEO
Country
Flag of CISCIS
Related business
Manufacturer
Lavochkin
Mission
Spacecraft
Bus & Motor
Unknown
Mass
Unknown
Launch date (UTC)
2011-07-18 (14 years ago)
Launch vehicle
Unknown
Launch site
Tyuratam Missile And Space Complex (TTMTR)
Object type
Payload
Rocket body
Debris
Shape & HBR
Unknown
Radar Cross Section
Small (<0.1 m²)

Expand to show TLE details & history
Last TLE update: 1 day ago

TLE from 1 day ago
0 FREGAT DEB
1 45971U 11037GC  25260.22127153  .00012627  00000-0  12344-2 0  9990
2 45971  51.4611 210.0209 1179044 207.9067 145.3461 12.92680139233224
Epoch: 2025-09-17T05:18Z
TLE epoch observation values (Epoch: 2025-09-17T05:18:37.86Z)
Latitude
-0.00003°
Longitude
133.96279°
Altitude
2,065.252 km
Speed
6.517 km/s
True Right ascension
14h 00m 05s
True Declination
0° 00' 00"
Sunlit
Object was in daylight at epoch
Visualization orbit readout
Latitude
Unknown
Longitude
Unknown
Altitude
Unknown
Speed
Unknown
Apparent Right ascension
Unknown
Apparent Declination
Unknown
Sunlit
N/A
Visualization observer readout
Local Sidereal Time
01:33:59
Azimuth
Unknown
Elevation
Unknown
Doppler factor
Unknown
Orbital elements
Apogee altitude
2,195.664 km
Perigee altitude
387.121 km
Semi-major axis
7,669.529 km
Eccentricity
0.1179
Inclination
51.4611°
RAAN
210.0209°
Arg. of periapsis
207.9067°
True anomaly
152.17901°
Mean anomaly
145.3461°
Eccentric anomaly
148.84141°
Mean motion
3.2314 °/min
Orbital period
111.41 mins
BSTAR
0.0012344
Loading maneuver chart data...
Computing Atmospheric mass density...
Loading historical data...
Loading historical data...
Loading historical data...
Loading historical data...
Loading historical data...
Loading historical data...
Loading historical data...

Documentation

Showing up to 5 results
|